[[{"header":{"parameterUnit":"m.s-1","parameterCategory":1,"la1":30.2991,"la2":30.254,"lo1":-89.0895,"lo2":-89.0444,"dy":0.0017,"dx":0.0017,"nx":28,"ny":28,"refTime":"2024-06-29T09:00:00:Z","depth":0,"parameterNumber":2,"parameterNumberName":"U-component_of_WINDS"},"data":[0,0,0,0,0,0,0,0,0,0,0,0,0,0,0,0,0,0,0,0,0,0,0,0,0,0,0,0,0,0,0,0,0,0,0,0,0,0,0,0,0,0,0,0,0,0,0,0,0,0,0,0,0,0,0,0,0,0,3.9859,3.9861,0,4.0022,4.0024,4.0025,4.0037,4.0035,4.0034,4.0032,4.02,4.0206,4.0212,0,0,0,0,0,0,0,0,0,0,0,0,0,3.956,3.9566,3.9859,3.9861,3.9863,4.0021,4.0024,4.0026,4.0038,4.0035,4.0033,4.0031,4.0198,4.0205,4.0213,0,0,0,0,0,0,0,0,0,0,0,0,0,3.9703,3.9567,3.9858,3.9888,3.9892,4.0021,4.0024,4.0027,4.0038,4.0035,4.0033,4.003,4.0196,4.0205,4.0214,4.0325,0,0,4.0242,4.0246,0,0,0,0,0,0,0,0,3.9695,3.9714,3.9881,3.9886,3.9891,4.0006,3.998,4.0127,4.0039,3.9983,4.0032,4.0029,4.0138,4.0152,4.0188,4.0333,4.034,4.0243,4.0249,4.0252,4.0255,0,0,0,0,0,0,0,3.9685,3.9707,3.9923,3.9884,3.989,3.9894,3.9911,4.0008,4.0074,3.9987,3.9988,4.0008,4.014,4.0179,4.0192,4.0343,4.0243,4.0251,4.0257,4.026,4.0589,4.0592,0,0,0,0,0,0,3.9669,3.9699,3.9918,3.9928,3.9784,3.9901,3.9921,3.9972,4.0072,4.0085,4.001,4.0008,4.0165,4.0182,4.0198,4.0336,4.0252,4.0261,4.0266,4.0586,4.059,4.0593,0,0,0,0,0,0,3.9663,3.9689,3.9911,3.9814,3.9843,3.9909,3.9967,3.9977,4.0016,4.0089,4.0101,4.0038,4.0163,4.0185,4.0294,4.0342,4.0265,4.0274,4.0582,4.0587,4.0591,4.0611,0,0,0,0,0,0,3.9654,3.9686,3.9728,3.9815,3.9848,4.0003,3.997,3.9982,4.0032,4.003,4.0119,4.0131,4.0163,4.028,4.0303,4.0353,4.0281,4.0578,4.0584,4.059,4.0606,4.0615,4.0623,0,0,0,0,0,3.9644,3.9727,3.973,3.9757,3.9902,4.0006,4.0025,4.006,4.0035,4.0079,4.0127,4.0128,4.0333,4.0291,4.0317,4.037,4.0575,4.0582,4.0589,4.0602,4.0613,4.0623,0,0,0,0,0,0,3.9644,3.9739,3.9743,3.9857,3.9924,4.0007,4.0063,4.0071,4.0145,4.0141,4.0182,4.0202,4.0309,4.0351,4.0302,4.0485,4.0452,4.0464,4.0452,4.0464,4.0473,4.0459,4.0289,0,0,0,0,0,3.9658,3.9734,3.9813,3.9906,3.9939,3.9995,4.0042,4.0064,4.0134,4.0162,4.0217,4.0286,4.0366,4.0418,4.0495,4.0613,4.0633,4.0663,4.0672,4.0679,4.0688,4.0755,4.0769,4.0617,4.0617,4.0616,0,0,3.9686,3.9747,3.9793,3.9908,3.9961,4.004,4.0019,4.0102,4.0161,4.0175,4.028,4.0324,4.0403,4.0517,4.057,4.0555,4.0736,4.0688,4.0693,4.0699,4.0764,4.0778,4.0791,4.0621,4.0621,4.062,0,0,3.9777,3.9831,3.9915,3.997,4.0052,4.0089,4.011,4.0194,4.0223,4.033,4.0342,4.0414,4.055,4.0607,4.0653,4.077,4.0774,4.0795,4.0839,4.0903,4.0915,4.0926,4.0967,4.0982,4.0805,4.0805,4.0805,0,3.9802,3.992,3.9957,4.0041,4.0092,4.0109,4.0194,4.0246,4.0349,4.0384,4.0367,4.054,4.0595,4.0722,4.0751,4.0788,4.0813,4.0783,4.0911,4.0922,4.0933,4.0972,4.0987,4.0806,4.0806,4.0806,4.0806,0,3.9946,4.0029,4.0087,4.0186,4.0244,4.0328,4.0379,4.0433,4.0451,4.0491,4.06,4.0667,4.0759,4.0792,4.0809,4.0923,4.0911,4.0902,4.0869,4.0948,4.0986,4.1002,4.0809,4.0808,4.0808,4.0807,0,0,4.0039,4.016,4.018,4.0226,4.032,4.0384,4.0471,4.0561,4.0606,4.0679,4.0752,4.0869,4.0862,4.0915,4.094,4.0997,4.1084,4.0981,4.0983,4.0997,4.1213,4.1218,4.1235,4.1089,4.1092,4.1095,4.1206,0,4.0139,4.0292,4.033,4.0461,4.0538,4.0557,4.0632,4.0698,4.0739,4.0811,4.0856,4.0938,4.0923,4.0955,4.1012,4.1061,4.1128,4.1054,4.1158,4.1161,4.1135,4.1254,4.1259,4.1361,4.1221,4.1224,4.1226,0,4.0276,4.0351,4.049,4.0575,4.0609,4.0675,4.0762,4.0831,4.0907,4.0933,4.0993,4.1014,4.1105,4.1071,4.1198,4.1147,4.1192,4.1224,4.1229,4.1237,4.1196,4.1265,4.1394,4.1408,4.1249,4.1248,4.1246,0,4.0328,4.0465,4.0565,4.0604,4.0706,4.0753,4.0798,4.0871,4.0924,4.1,4.1035,4.1121,4.1168,4.1235,4.1279,4.1249,4.1403,4.1371,4.1427,4.1425,4.1456,4.1453,4.1592,4.1488,4.1488,4.1488,4.1487,0,4.0435,4.0519,4.059,4.0652,4.0747,4.0791,4.0884,4.093,4.0996,4.1067,4.109,4.1157,4.1212,4.1286,4.1322,4.1422,4.1443,4.1467,4.1475,4.1464,4.146,4.1492,4.1485,4.1492,4.1491,4.149,4.1489,0,4.0508,4.0559,4.067,4.0759,4.0783,4.0849,4.0925,4.0986,4.1029,4.112,4.1144,4.1211,4.13,4.1351,4.1464,4.1487,4.1599,4.1604,4.1572,4.1575,4.1627,4.1621,4.1789,4.1814,4.1696,4.1697,4.1698,0,4.0572,4.0637,4.0733,4.0782,4.0828,4.0908,4.0962,4.1009,4.1064,4.1158,4.1208,4.1299,4.1374,4.1516,4.1575,4.1662,4.1669,4.1722,4.1682,4.1669,4.1668,4.1663,4.1669,4.1728,4.1729,4.173,4.1731,0,4.0679,4.0702,4.0778,4.0865,4.0929,4.0999,4.1069,4.1109,4.1168,4.1229,4.1321,4.1379,4.1495,4.1585,4.1678,4.1725,4.1738,4.1744,4.1761,4.1748,4.1727,4.1738,4.1589,4.1739,4.1738,4.1737,4.1737,4.1737,4.0748,4.0807,4.0884,4.097,4.1028,4.1093,4.1155,4.1206,4.1284,4.1381,4.1405,4.1502,4.1579,4.1704,4.1755,4.1831,4.1822,4.1847,4.1853,4.1858,4.1859,4.1717,4.1849,4.1849,4.1848,4.1848,4.1848,0,4.0855,4.0907,4.0985,4.1082,4.115,4.1158,4.1236,4.1292,4.1377,4.1448,4.1522,4.1628,4.1717,4.1784,4.1875,4.1924,4.1932,4.1946,4.1941,4.1952,4.1863,4.1838,4.1937,4.1937,4.1937,4.1937,4.1937,4.1937,4.0919,4.1019,4.1051,4.1182,4.1233,4.1327,4.1372,4.1433,4.149,4.1607,4.1681,4.1724,4.1795,4.1891,4.1973,4.1991,4.2022,4.2035,4.2053,4.1968,4.1958,4.1949,4.1926,4.2042,4.2042,4.2136,4.2137,4.2137]},{"header":{"parameterUnit":"m.s-1","parameterCategory":1,"la1":30.2991,"la2":30.254,"lo1":-89.0895,"lo2":-89.0444,"dy":0.0017,"dx":0.0017,"nx":28,"ny":28,"refTime":"2024-06-29T09:00:00:Z","depth":0,"parameterNumber":3,"parameterNumberName":"V-component_of_WINDS"},"data":[0,0,0,0,0,0,0,0,0,0,0,0,0,0,0,0,0,0,0,0,0,0,0,0,0,0,0,0,0,0,0,0,0,0,0,0,0,0,0,0,0,0,0,0,0,0,0,0,0,0,0,0,0,0,0,0,0,0,3.4627,3.463,0,3.4935,3.4939,3.4942,3.497,3.4967,3.4964,3.4961,3.5277,3.5288,3.5299,0,0,0,0,0,0,0,0,0,0,0,0,0,3.4061,3.4071,3.4627,3.4631,3.4635,3.4935,3.4939,3.4943,3.4971,3.4967,3.4963,3.4959,3.5273,3.5287,3.53,0,0,0,0,0,0,0,0,0,0,0,0,0,3.4332,3.4075,3.4626,3.4685,3.4693,3.4934,3.4939,3.4944,3.4972,3.4967,3.4962,3.4957,3.5269,3.5285,3.5302,3.5506,0,0,3.5355,3.5362,0,0,0,0,0,0,0,0,3.4316,3.4353,3.4672,3.4681,3.4691,3.4909,3.4855,3.5133,3.4973,3.4866,3.4961,3.4955,3.5159,3.5184,3.5253,3.5521,3.5535,3.5356,3.5367,3.5374,3.5379,0,0,0,0,0,0,0,3.4298,3.4339,3.4749,3.4677,3.4688,3.4695,3.4728,3.4908,3.5036,3.4875,3.4878,3.4914,3.5163,3.5236,3.5261,3.5539,3.5356,3.5371,3.5382,3.5388,3.5987,3.5993,0,0,0,0,0,0,3.4268,3.4324,3.4739,3.4758,3.4488,3.4709,3.4746,3.4844,3.5034,3.5058,3.4918,3.4914,3.5209,3.5241,3.5272,3.5522,3.5374,3.539,3.54,3.5982,3.5989,3.5995,0,0,0,0,0,0,3.4256,3.4305,3.4727,3.4542,3.4596,3.4724,3.4834,3.4853,3.4927,3.5066,3.5089,3.497,3.5207,3.5248,3.5447,3.5533,3.5398,3.5413,3.5975,3.5984,3.5992,3.6024,0,0,0,0,0,0,3.4239,3.43,3.438,3.4543,3.4606,3.4898,3.4839,3.4862,3.4956,3.4954,3.5121,3.5144,3.5206,3.5421,3.5464,3.5555,3.5427,3.5968,3.5979,3.5989,3.6016,3.6033,3.6047,0,0,0,0,0,3.4219,3.4377,3.4383,3.4433,3.4708,3.4902,3.4938,3.5006,3.4963,3.5043,3.5133,3.5139,3.5517,3.5442,3.549,3.5587,3.5963,3.5976,3.5988,3.6009,3.603,3.6047,0,0,0,0,0,0,3.4221,3.44,3.4409,3.4625,3.4748,3.4907,3.5011,3.5026,3.5164,3.5157,3.5235,3.5273,3.5469,3.5548,3.5461,3.5793,3.5735,3.5758,3.5735,3.5755,3.577,3.5747,3.5441,0,0,0,0,0,3.4246,3.4389,3.4538,3.4714,3.4775,3.4882,3.497,3.5011,3.5142,3.5195,3.5299,3.5425,3.5572,3.5668,3.5811,3.6027,3.6063,3.6117,3.6133,3.6145,3.6164,3.6282,3.6307,3.6036,3.6036,3.6036,0,0,3.43,3.4416,3.4502,3.4717,3.4818,3.4964,3.4926,3.5083,3.5192,3.5219,3.5413,3.5493,3.564,3.5848,3.5945,3.592,3.6246,3.6161,3.6169,3.6182,3.6297,3.6323,3.6346,3.6045,3.6043,3.6042,0,0,3.4474,3.4576,3.4733,3.4834,3.4986,3.5056,3.5093,3.525,3.5304,3.55,3.5523,3.5653,3.5905,3.6008,3.6093,3.6303,3.6313,3.6347,3.6428,3.6542,3.6564,3.6583,3.6657,3.6682,3.6365,3.6365,3.6366,0,3.4522,3.4743,3.4812,3.4968,3.5061,3.5091,3.525,3.5345,3.5536,3.5599,3.5568,3.5884,3.5985,3.6216,3.6267,3.6336,3.638,3.6329,3.6555,3.6575,3.6594,3.6665,3.6693,3.6369,3.6368,3.6368,3.6368,0,3.4794,3.4947,3.5056,3.5239,3.5345,3.5501,3.5593,3.5691,3.5723,3.5795,3.5993,3.6115,3.6282,3.634,3.6373,3.6576,3.6556,3.6539,3.6483,3.6622,3.669,3.6718,3.6373,3.6372,3.6371,3.637,0,0,3.498,3.5197,3.5235,3.5318,3.5487,3.5606,3.5763,3.5927,3.6009,3.6139,3.6272,3.6484,3.6469,3.6565,3.661,3.671,3.6866,3.6681,3.6685,3.6711,3.7096,3.7107,3.7138,3.6873,3.6879,3.6883,3.7083,0,3.5171,3.5452,3.5517,3.5758,3.59,3.5929,3.6065,3.6183,3.6254,3.6384,3.6462,3.661,3.658,3.6638,3.6738,3.6826,3.6944,3.6812,3.6997,3.7003,3.696,3.7174,3.7187,3.737,3.711,3.7115,3.7118,0,3.5434,3.5569,3.5824,3.5972,3.6034,3.6156,3.6309,3.6433,3.6567,3.6611,3.6718,3.6751,3.6915,3.6849,3.7074,3.6983,3.7062,3.7116,3.7124,3.7145,3.7069,3.7199,3.743,3.7458,3.7161,3.7158,3.7154,0,3.5542,3.5788,3.5971,3.6041,3.622,3.6304,3.6382,3.6511,3.6604,3.6738,3.6799,3.695,3.7033,3.7149,3.7222,3.7167,3.7441,3.7382,3.7482,3.748,3.7539,3.7534,3.7786,3.7589,3.7589,3.7588,3.7588,0,3.575,3.5904,3.6022,3.6135,3.6309,3.6381,3.655,3.6629,3.6742,3.687,3.6904,3.7024,3.7112,3.7243,3.7301,3.7478,3.7515,3.7555,3.7569,3.7553,3.7547,3.7606,3.7595,3.7596,3.7594,3.7593,3.7592,0,3.59,3.5986,3.6188,3.6339,3.6381,3.6502,3.6631,3.6742,3.6812,3.6974,3.7016,3.7127,3.7283,3.7366,3.7562,3.76,3.7799,3.7805,3.7754,3.7759,3.7855,3.7844,3.8153,3.8196,3.7971,3.7973,3.7974,0,3.6027,3.6147,3.6311,3.6399,3.6478,3.662,3.6715,3.679,3.6887,3.7047,3.7138,3.7295,3.7425,3.7673,3.7771,3.7919,3.793,3.8027,3.7953,3.7932,3.7931,3.7923,3.7935,3.8041,3.8043,3.8044,3.8046,0,3.6243,3.6279,3.6415,3.6566,3.6678,3.68,3.6921,3.6991,3.7085,3.7192,3.7352,3.7453,3.7651,3.7807,3.7963,3.8043,3.806,3.8068,3.8099,3.8084,3.8049,3.8069,3.7789,3.8061,3.806,3.8059,3.8058,3.8057,3.6386,3.6493,3.6625,3.6774,3.6873,3.6984,3.7095,3.7179,3.7313,3.7481,3.7517,3.7685,3.7813,3.8024,3.8108,3.824,3.8221,3.8266,3.8277,3.8287,3.8291,3.8028,3.8269,3.8268,3.8268,3.8268,3.8267,0,3.6604,3.6689,3.6826,3.6993,3.7111,3.7116,3.7249,3.7347,3.7495,3.7613,3.774,3.7922,3.8073,3.8181,3.8334,3.8419,3.8431,3.8457,3.8451,3.8469,3.83,3.8257,3.8444,3.8444,3.8444,3.8444,3.8444,3.8444,3.673,3.6911,3.6962,3.7191,3.7276,3.7441,3.7516,3.7619,3.7714,3.7916,3.8041,3.811,3.8225,3.8386,3.8524,3.8552,3.8606,3.8632,3.866,3.85,3.8481,3.8463,3.8424,3.8643,3.8643,3.8819,3.882,3.8821]}]]